Change the Weather History Date:

Saturday, November 10, 2012

  Actual Average Record
Temperature  
Mean Temperature 58 °F 66 °F  
Max Temperature 65 °F 78 °F 91 °F (2009)
Min Temperature 50 °F 55 °F 33 °F (1948)
Degree Days  
Heating Degree Days 7 2  
Month to date heating degree days 7 12  
Since 1 July heating degree days 7 18  
Cooling Degree Days 0 3  
Month to date cooling degree days 84 45  
Year to date cooling degree days 5012 4581  
Growing Degree Days 8 (Base 50)    
Moisture  
Dew Point 28 °F    
Average Humidity 36    
Maximum Humidity 51    
Minimum Humidity 21    
Precipitation  
Precipitation T in 0.02 in 2.24 in (1923)
Month to date precipitation 0.05 0.20  
Year to date precipitation 3.41 6.70  
Snow  
Snow 0.00 in - - ()
Month to date snowfall 0.0  
Year to date snowfall 0.0  
Since 1 July snowfall 0.0  
Snow Depth 0.00 in    
Sea Level Pressure  
Sea Level Pressure 29.91 in    
Wind  
Wind Speed 11 mph (West)    
Max Wind Speed 26 mph    
Max Gust Speed 33 mph    
Visibility 10 miles    
Events      
T = Trace of Precipitation, MM = Missing Value Source: NWS Daily Summary

Daily Weather History Graph

Daily Weather History Graph

Search for Another Location

Airport or City:

Trip Planner

Search our weather history database for the weather conditions in past years. The results will help you decide how hot, cold, wet, or windy it might be!

Date:

Astronomy

Nov. 10, 2012 Rise Set
Actual Time 6:55 AM MST 5:28 PM MST
Civil Twilight 6:29 AM MST 5:54 PM MST
Nautical Twilight 5:59 AM MST 6:24 PM MST
Astronomical Twilight 5:30 AM MST 6:53 PM MST
Moon 3:14 AM MST (11/10) 3:09 PM MST (11/10)
Length of Visible Light 11h 25m
Length of Day
10h 33m
Waning Crescent, 14% of the Moon is Illuminated
Nov 10
Waning Crescent
Nov 13
New
Nov 20
First Quarter
Nov 28
Full
Dec 6
Last Quarter

Hourly Weather History & Observations

Time (MST) Temp. Dew Point Humidity Pressure Visibility Wind Dir Wind Speed Gust Speed Precip Events Conditions
12:51 AM 60.1 °F 41.0 °F 49% 29.78 in 10.0 mi West 11.5 mph - 0.00 in   Overcast
1:51 AM 59.0 °F 32.0 °F 36% 29.79 in 10.0 mi WNW 9.2 mph - N/A   Overcast
2:51 AM 57.9 °F 30.9 °F 36% 29.79 in 10.0 mi West 10.4 mph - N/A   Mostly Cloudy
3:51 AM 57.9 °F 30.9 °F 36% 29.81 in 10.0 mi West 17.3 mph 24.2 mph N/A   Mostly Cloudy
4:51 AM 57.0 °F 30.9 °F 37% 29.84 in 10.0 mi West 13.8 mph 19.6 mph N/A   Mostly Cloudy
5:51 AM 55.0 °F 30.9 °F 40% 29.86 in 10.0 mi West 12.7 mph - N/A   Scattered Clouds
6:51 AM 54.0 °F 30.9 °F 41% 29.89 in 10.0 mi West 10.4 mph - N/A   Scattered Clouds
7:51 AM 54.0 °F 30.9 °F 41% 29.92 in 10.0 mi West 11.5 mph - N/A   Partly Cloudy
8:51 AM 57.0 °F 30.9 °F 37% 29.94 in 10.0 mi WSW 9.2 mph - N/A   Partly Cloudy
9:51 AM 57.9 °F 28.9 °F 33% 29.96 in 10.0 mi WNW 9.2 mph - N/A   Partly Cloudy
10:51 AM 59.0 °F 28.0 °F 31% 29.96 in 10.0 mi West 13.8 mph - N/A   Partly Cloudy
11:51 AM 60.1 °F 28.0 °F 30% 29.95 in 10.0 mi West 8.1 mph - N/A   Scattered Clouds
12:51 PM 63.0 °F 26.1 °F 25% 29.92 in 10.0 mi West 11.5 mph 19.6 mph N/A   Scattered Clouds
1:51 PM 63.0 °F 26.1 °F 25% 29.90 in 10.0 mi SW 12.7 mph 20.7 mph N/A   Scattered Clouds
2:51 PM 62.6 °F 24.8 °F 24% 29.91 in 10.0 mi West 15.0 mph 20.7 mph N/A   Scattered Clouds
3:51 PM 62.6 °F 24.8 °F 24% 29.90 in 10.0 mi SW 13.8 mph 21.9 mph N/A   Mostly Cloudy
4:51 PM 62.1 °F 23.0 °F 22% 29.89 in 10.0 mi West 16.1 mph - N/A   Mostly Cloudy
5:51 PM 57.9 °F 27.0 °F 31% 29.92 in 10.0 mi West 18.4 mph 26.5 mph N/A   Mostly Cloudy
6:51 PM 57.9 °F 24.1 °F 27% 29.94 in 10.0 mi WNW 10.4 mph - N/A   Mostly Cloudy
7:51 PM 57.0 °F 25.0 °F 29% 29.96 in 10.0 mi Variable 5.8 mph - N/A   Mostly Cloudy
8:51 PM 57.9 °F 23.0 °F 26% 29.98 in 10.0 mi West 8.1 mph - N/A   Scattered Clouds
9:51 PM 55.9 °F 23.0 °F 28% 30.01 in 10.0 mi WNW 8.1 mph - N/A   Scattered Clouds
10:51 PM 52.0 °F 28.0 °F 40% 30.03 in 10.0 mi Calm Calm - N/A   Scattered Clouds
11:51 PM 50.0 °F 27.0 °F 41% 30.05 in 10.0 mi SW 3.5 mph - N/A   Partly Cloudy